Location: Basse Occidentale du Courleau
(48.3833°N, 4.8333°W)
Time: 19:53:54
(UTC+00:00)

Meteor 1-27 - Pass Details

Date: 05 July 2020
Orbit: 838 x 892 km, 81.3° (Epoch: 06 August)

Event Time Altitude Azimuth Distance (km) Brightness Sun altitude
Rises 22:05:16 0° 347° (NNW) 3,450 8.9 -12.5°
Reaches altitude 10° 22:07:41 10° 347° (NNW) 2,517 7.9 -12.7°
Maximum altitude 22:13:25 83° 261° (W) 887 4.3 -13.2°
Enters shadow 22:18:07 16° 174° (S) 2,123 5.7 -13.6°
